This demonstration page uses our WeatherBlox Daily Observations layout. Learn more.

Left ArrowRight Arrow

39.92423, -83.80882

Hourly Observations for July 29, 2022

Temp ( °F °C ) Dew Point ( °F °C ) Humidity (%) Winds ( mph kmh ) Pressure ( in mb ) Visibility ( mi km ) Precip ( " mm )
12:56 am 00:56 Clear 72 22.2 71 21.7 97 97 SSW 5 7 29.93 1014 10 16 0.00 0.00
1:56 am 01:56 Clear 72 22.2 72 22.2 100 100 W 7 11 29.93 1014 10 16 0.00 0.00
2:56 am 02:56 Clear 72 22 N/A N/A NW 6 9 29.93 1014 10 16 0.00 0.00
3:56 am 03:56 Cloudy with Light Rain 70 21 N/A N/A NW 3 6 29.94 1014 9 14 0.00 0.00
4:56 am 04:56 Mostly Cloudy 70 21 N/A N/A NE 6 9 29.94 1014 10 16 0.00 0.00
5:56 am 05:56 Cloudy 68 20 N/A N/A Calm 29.96 1014 10 16 0.00 0.00
6:56 am 06:56 Cloudy N/A N/A N/A NNE 5 7 N/A 10 16 0.00 0.00
7:56 am 07:56 Cloudy 68 20 N/A N/A E 6 9 29.99 1016 10 16 0.00 0.00
8:56 am 08:56 Cloudy 69 20.6 66 18.9 90 90 Calm 30.01 1016 10 16 0.00 0.00
9:56 am 09:56 Sunny 73 22.8 64 17.8 74 74 Calm 30.01 1016 10 16 0.00 0.00
10:56 am 10:56 Mostly Sunny 76 24.4 63 17.2 64 64 ESE 3 6 30.01 1016 10 16 0.00 0.00
11:56 am 11:56 Cloudy 75 23.9 63 17.2 66 66 Calm 30.02 1017 10 16 0.00 0.00
12:56 pm 12:56 Sunny 77 25 63 17.2 62 62 NNW 3 6 30.02 1017 10 16 0.00 0.00
1:56 pm 13:56 Mostly Sunny 77 25 63 17.2 62 62 W 7 11 30.01 1016 10 16 0.00 0.00
2:56 pm 14:56 Cloudy 77 25 65 18.3 66 66 W 8 13 30.00 1016 10 16 0.00 0.00
3:56 pm 15:56 Mostly Sunny 80 26.7 62 16.7 54 54 W 9 15 30.00 1016 10 16 0.00 0.00
4:56 pm 16:56 Partly Cloudy 78 25.6 60 15.6 54 54 W 10 17 30.00 1016 10 16 0.00 0.00
5:56 pm 17:56 Mostly Cloudy 79 26.1 61 16.1 54 54 WNW 12 19 30.01 1016 10 16 0.00 0.00
6:56 pm 18:56 Sunny 77 25 59 15 54 54 WNW 12 19 29.98 1015 10 16 0.00 0.00
7:56 pm 19:56 Sunny 74 23.3 60 15.6 62 62 NW 8 13 30.03 1017 10 16 0.00 0.00
8:56 pm 20:56 Clear 70 21.1 60 15.6 71 71 WNW 6 9 30.05 1018 10 16 0.00 0.00
9:56 pm 21:56 Clear 66 18.9 66 18.9 100 100 NW 3 6 30.08 1019 10 16 0.00 0.00
10:56 pm 22:56 Clear 64 17.8 64 17.8 100 100 WNW 5 7 30.10 1019 10 16 0.01 0.25
11:56 pm 23:56 Clear 64 18 N/A N/A Calm 30.11 1020 10 16 0.00 0.00

Powered by AerisWeather